This is the latest recevied weather packets stored in our database for station/object IU4KCH-20. If no packets are shown the sender has not sent any weather packets the latest 1 day(s).
| Time | Temp. | Humidity | Pressure | Rain* | Wind** | Luminosity | Snow |
|---|---|---|---|---|---|---|---|
| 1777759127 | 17.78° C | 45% | 1017.6 hPa | - | - | - | - |
| 1777758226 | 17.78° C | 47% | 1017.7 hPa | - | - | - | - |
| 1777756424 | 18.33° C | 44% | 1017.7 hPa | - | - | - | - |
| 1777755523 | 18.89° C | 43% | 1017.7 hPa | - | - | - | - |
| 1777754623 | 19.44° C | 41% | 1017.6 hPa | - | - | - | - |
| 1777753722 | 20° C | 38% | 1017.8 hPa | - | - | - | - |
| 1777752821 | 20.56° C | 37% | 1017.8 hPa | - | - | - | - |
| 1777751920 | 20° C | 39% | 1017.8 hPa | - | - | - | - |
| 1777751019 | 20.56° C | 39% | 1017.7 hPa | - | - | - | - |
| 1777750119 | 21.11° C | 38% | 1017.7 hPa | - | - | - | - |
| 1777749218 | 21.11° C | 36% | 1017.6 hPa | - | - | - | - |
| 1777748317 | 21.67° C | 39% | 1017.4 hPa | - | - | - | - |
| 1777747416 | 22.78° C | 36% | 1017.2 hPa | - | - | - | - |
| 1777746515 | 23.33° C | 35% | 1017.2 hPa | - | - | - | - |
| 1777745614 | 23.89° C | 32% | 1017.1 hPa | - | - | - | - |
| 1777744713 | 25.56° C | 28% | 1017.1 hPa | - | - | - | - |
| 1777743813 | 25.56° C | 28% | 1017 hPa | - | - | - | - |
| 1777742011 | 27.78° C | 26% | 1017.2 hPa | - | - | - | - |
| 1777741110 | 28.33° C | 24% | 1017.1 hPa | - | - | - | - |
| 1777740209 | 28.89° C | 22% | 1017.3 hPa | - | - | - | - |
| 1777739308 | 32.78° C | 19% | 1017.3 hPa | - | - | - | - |
| 1777738408 | 31.11° C | 21% | 1017.5 hPa | - | - | - | - |
| 1777737507 | 32.78° C | 19% | 1017.6 hPa | - | - | - | - |
| 1777736606 | 30.56° C | 22% | 1017.8 hPa | - | - | - | - |
| 1777735705 | 35° C | 16% | 1017.9 hPa | - | - | - | - |
* Rain since midnight (hover to see other rain measurements)
** Current wind speed in m/s (hover to see current wind gust speed)